Time,TemperatureF,DewpointF,PressureIn,WindDirection,WindDirectionDegrees,WindSpeedMPH,WindSpeedGustMPH,Humidity,HourlyPrecipIn,Conditions,Clouds,dailyrainin,SoftwareType,DateUTC
2013-03-19 00:04:00,30.3,27.1,30.29,SE,141,0.0,0.0,88,0.00,,,0.00,WUHU216DAVISWMX,2013-03-19 04:04:00,
2013-03-19 00:09:00,30.2,27.0,30.28,SSE,164,2.0,2.0,88,0.00,,,0.00,WUHU216DAVISWMX,2013-03-19 04:09:00,
2013-03-19 00:14:00,30.2,26.8,30.28,SE,125,0.0,2.0,87,0.00,,,0.00,WUHU216DAVISWMX,2013-03-19 04:14:00,
2013-03-19 00:19:00,30.1,26.9,30.27,SE,125,0.0,2.0,88,0.00,,,0.00,WUHU216DAVISWMX,2013-03-19 04:19:00,
2013-03-19 00:24:00,30.1,26.9,30.27,SE,125,0.0,1.0,88,0.00,,,0.00,WUHU216DAVISWMX,2013-03-19 04:24:00,
2013-03-19 00:29:00,30.2,27.0,30.27,SE,125,0.0,1.0,88,0.00,,,0.00,WUHU216DAVISWMX,2013-03-19 04:29:00,
2013-03-19 00:34:00,30.2,26.8,30.26,SE,125,0.0,0.0,87,0.00,,,0.00,WUHU216DAVISWMX,2013-03-19 04:34:00,
2013-03-19 00:39:00,30.1,26.9,30.26,ENE,58,0.0,2.0,88,0.00,,,0.00,WUHU216DAVISWMX,2013-03-19 04:39:00,
2013-03-19 00:44:00,30.0,27.1,30.26,SSE,149,0.0,2.0,89,0.00,,,0.00,WUHU216DAVISWMX,2013-03-19 04:44:00,
2013-03-19 00:49:00,30.1,26.9,30.25,SSE,149,0.0,1.0,88,0.00,,,0.00,WUHU216DAVISWMX,2013-03-19 04:49:00,
2013-03-19 00:54:00,30.0,26.8,30.25,NE,40,0.0,2.0,88,0.00,,,0.00,WUHU216DAVISWMX,2013-03-19 04:54:00,
2013-03-19 00:59:00,29.9,27.0,30.25,East,98,0.0,2.0,89,0.00,,,0.00,WUHU216DAVISWMX,2013-03-19 04:59:00,
2013-03-19 01:04:00,29.9,27.0,30.24,East,98,0.0,2.0,89,0.00,,,0.00,WUHU216DAVISWMX,2013-03-19 05:04:00,
2013-03-19 01:09:00,29.6,27.0,30.24,SE,129,0.0,1.0,90,0.00,,,0.00,WUHU216DAVISWMX,2013-03-19 05:09:00,
2013-03-19 01:14:00,29.6,27.0,30.24,South,180,0.0,4.0,90,0.00,,,0.00,WUHU216DAVISWMX,2013-03-19 05:14:00,
2013-03-19 01:19:00,29.6,27.0,30.23,SSE,155,0.0,4.0,90,0.00,,,0.00,WUHU216DAVISWMX,2013-03-19 05:19:00,
2013-03-19 01:24:00,29.6,27.0,30.23,SSE,155,0.0,1.0,90,0.00,,,0.00,WUHU216DAVISWMX,2013-03-19 05:24:00,
2013-03-19 01:29:00,29.5,26.9,30.23,SSE,155,0.0,0.0,90,0.00,,,0.00,WUHU216DAVISWMX,2013-03-19 05:29:00,
2013-03-19 01:34:00,29.4,26.8,30.22,SSE,155,0.0,0.0,90,0.00,,,0.00,WUHU216DAVISWMX,2013-03-19 05:34:00,
2013-03-19 01:39:00,29.4,26.8,30.22,SSE,155,0.0,0.0,90,0.00,,,0.00,WUHU216DAVISWMX,2013-03-19 05:39:00,
2013-03-19 01:44:00,29.5,26.9,30.21,SSE,155,0.0,0.0,90,0.00,,,0.00,WUHU216DAVISWMX,2013-03-19 05:44:00,
2013-03-19 01:49:00,29.4,26.8,30.21,SSE,155,0.0,0.0,90,0.00,,,0.00,WUHU216DAVISWMX,2013-03-19 05:49:00,
2013-03-19 01:54:00,29.3,27.0,30.21,ENE,62,0.0,0.0,91,0.00,,,0.00,WUHU216DAVISWMX,2013-03-19 05:54:00,
2013-03-19 01:59:00,29.3,27.0,30.20,ENE,65,0.0,0.0,91,0.00,,,0.00,WUHU216DAVISWMX,2013-03-19 05:59:00,
2013-03-19 02:04:00,29.2,26.9,30.20,ENE,65,0.0,0.0,91,0.00,,,0.00,WUHU216DAVISWMX,2013-03-19 06:04:00,
2013-03-19 02:09:00,29.2,26.9,30.20,ENE,65,0.0,0.0,91,0.00,,,0.00,WUHU216DAVISWMX,2013-03-19 06:09:00,
2013-03-19 02:14:00,29.1,26.8,30.19,ENE,66,0.0,0.0,91,0.00,,,0.00,WUHU216DAVISWMX,2013-03-19 06:14:00,
2013-03-19 02:19:00,29.1,26.8,30.19,ENE,65,0.0,2.0,91,0.00,,,0.00,WUHU216DAVISWMX,2013-03-19 06:19:00,
2013-03-19 02:24:00,29.2,26.9,30.19,ENE,66,0.0,2.0,91,0.00,,,0.00,WUHU216DAVISWMX,2013-03-19 06:24:00,
2013-03-19 02:29:00,29.1,26.8,30.19,ENE,66,0.0,1.0,91,0.00,,,0.00,WUHU216DAVISWMX,2013-03-19 06:29:00,
2013-03-19 02:34:00,29.2,26.9,30.18,East,101,0.0,2.0,91,0.00,,,0.00,WUHU216DAVISWMX,2013-03-19 06:34:00,
2013-03-19 02:39:00,29.1,26.8,30.18,East,101,0.0,2.0,91,0.00,,,0.00,WUHU216DAVISWMX,2013-03-19 06:39:00,
2013-03-19 02:44:00,29.3,27.0,30.17,East,98,0.0,1.0,91,0.00,,,0.00,WUHU216DAVISWMX,2013-03-19 06:44:00,
2013-03-19 02:49:00,29.2,26.9,30.17,ENE,60,0.0,1.0,91,0.00,,,0.00,WUHU216DAVISWMX,2013-03-19 06:49:00,
2013-03-19 02:54:00,29.2,26.9,30.17,ENE,60,0.0,1.0,91,0.00,,,0.00,WUHU216DAVISWMX,2013-03-19 06:54:00,
2013-03-19 02:59:00,29.3,27.0,30.17,ENE,60,0.0,1.0,91,0.00,,,0.00,WUHU216DAVISWMX,2013-03-19 06:59:00,
2013-03-19 03:04:00,29.2,26.9,30.16,ENE,66,0.0,1.0,91,0.00,,,0.00,WUHU216DAVISWMX,2013-03-19 07:04:00,
2013-03-19 03:09:00,29.2,26.9,30.16,ENE,65,0.0,1.0,91,0.00,,,0.00,WUHU216DAVISWMX,2013-03-19 07:09:00,
2013-03-19 03:14:00,29.1,27.0,30.16,ENE,68,0.0,1.0,92,0.00,,,0.00,WUHU216DAVISWMX,2013-03-19 07:14:00,
2013-03-19 03:19:00,29.1,27.0,30.16,ENE,68,0.0,1.0,92,0.00,,,0.00,WUHU216DAVISWMX,2013-03-19 07:19:00,
2013-03-19 03:24:00,29.1,27.0,30.16,ENE,68,0.0,0.0,92,0.00,,,0.00,WUHU216DAVISWMX,2013-03-19 07:24:00,
2013-03-19 03:29:00,29.2,27.1,30.16,East,85,0.0,1.0,92,0.00,,,0.00,WUHU216DAVISWMX,2013-03-19 07:29:00,
2013-03-19 03:34:00,29.2,26.9,30.16,East,85,0.0,1.0,91,0.00,,,0.00,WUHU216DAVISWMX,2013-03-19 07:34:00,
2013-03-19 03:39:00,29.2,27.1,30.16,East,85,0.0,0.0,92,0.00,,,0.00,WUHU216DAVISWMX,2013-03-19 07:39:00,
2013-03-19 03:44:00,29.2,27.1,30.16,East,85,0.0,0.0,92,0.00,,,0.00,WUHU216DAVISWMX,2013-03-19 07:44:00,
2013-03-19 03:49:00,29.1,27.3,30.15,East,85,0.0,0.0,93,0.00,,,0.00,WUHU216DAVISWMX,2013-03-19 07:49:00,
2013-03-19 03:54:00,29.0,27.2,30.16,East,85,0.0,0.0,93,0.00,,,0.00,WUHU216DAVISWMX,2013-03-19 07:54:00,
2013-03-19 03:59:00,29.1,27.3,30.15,East,85,0.0,0.0,93,0.00,,,0.00,WUHU216DAVISWMX,2013-03-19 07:59:00,
2013-03-19 04:04:00,29.3,27.2,30.15,East,85,0.0,1.0,92,0.00,,,0.00,WUHU216DAVISWMX,2013-03-19 08:04:00,
2013-03-19 04:09:00,29.3,27.2,30.15,East,84,0.0,1.0,92,0.00,,,0.00,WUHU216DAVISWMX,2013-03-19 08:09:00,
2013-03-19 04:14:00,29.2,27.1,30.15,East,85,0.0,0.0,92,0.00,,,0.00,WUHU216DAVISWMX,2013-03-19 08:14:00,
2013-03-19 04:19:00,29.0,26.9,30.14,East,84,0.0,0.0,92,0.00,,,0.00,WUHU216DAVISWMX,2013-03-19 08:19:00,
2013-03-19 04:24:00,29.2,27.4,30.14,East,85,0.0,0.0,93,0.00,,,0.00,WUHU216DAVISWMX,2013-03-19 08:24:00,
2013-03-19 04:29:00,29.2,27.1,30.14,East,85,0.0,0.0,92,0.00,,,0.00,WUHU216DAVISWMX,2013-03-19 08:29:00,
2013-03-19 04:34:00,29.3,27.2,30.13,East,85,0.0,0.0,92,0.00,,,0.00,WUHU216DAVISWMX,2013-03-19 08:34:00,
2013-03-19 04:39:00,29.2,27.1,30.13,East,85,0.0,1.0,92,0.00,,,0.00,WUHU216DAVISWMX,2013-03-19 08:39:00,
2013-03-19 04:44:00,29.2,27.4,30.12,ENE,72,0.0,2.0,93,0.00,,,0.00,WUHU216DAVISWMX,2013-03-19 08:44:00,
2013-03-19 04:49:00,29.2,27.6,30.12,ENE,71,0.0,2.0,94,0.00,,,0.00,WUHU216DAVISWMX,2013-03-19 08:49:00,
2013-03-19 04:54:00,29.1,27.5,30.12,ENE,60,1.0,2.0,94,0.00,,,0.00,WUHU216DAVISWMX,2013-03-19 08:54:00,
2013-03-19 04:59:00,29.0,27.4,30.12,ENE,59,0.0,2.0,94,0.00,,,0.00,WUHU216DAVISWMX,2013-03-19 08:59:00,
2013-03-19 05:04:00,29.0,27.4,30.12,ENE,71,0.0,1.0,94,0.00,,,0.00,WUHU216DAVISWMX,2013-03-19 09:04:00,
2013-03-19 05:09:00,29.1,27.5,30.12,ENE,68,0.0,1.0,94,0.00,,,0.00,WUHU216DAVISWMX,2013-03-19 09:09:00,
2013-03-19 05:14:00,29.2,27.6,30.13,ENE,69,0.0,0.0,94,0.00,,,0.00,WUHU216DAVISWMX,2013-03-19 09:14:00,
2013-03-19 05:19:00,29.3,27.7,30.12,ENE,68,0.0,0.0,94,0.00,,,0.00,WUHU216DAVISWMX,2013-03-19 09:19:00,
2013-03-19 05:24:00,29.3,27.7,30.12,ENE,68,0.0,0.0,94,0.00,,,0.00,WUHU216DAVISWMX,2013-03-19 09:24:00,
2013-03-19 05:29:00,29.3,27.7,30.12,ENE,69,0.0,0.0,94,0.00,,,0.00,WUHU216DAVISWMX,2013-03-19 09:29:00,
2013-03-19 05:34:00,29.3,27.7,30.12,East,82,0.0,1.0,94,0.00,,,0.00,WUHU216DAVISWMX,2013-03-19 09:34:00,
2013-03-19 05:39:00,29.2,27.6,30.12,East,84,0.0,1.0,94,0.00,,,0.00,WUHU216DAVISWMX,2013-03-19 09:39:00,
2013-03-19 05:44:00,29.3,27.7,30.12,ENE,74,0.0,1.0,94,0.00,,,0.00,WUHU216DAVISWMX,2013-03-19 09:44:00,
2013-03-19 05:49:00,29.3,27.7,30.12,ENE,68,0.0,1.0,94,0.00,,,0.00,WUHU216DAVISWMX,2013-03-19 09:49:00,
2013-03-19 05:54:00,29.3,27.7,30.11,ENE,65,0.0,1.0,94,0.00,,,0.00,WUHU216DAVISWMX,2013-03-19 09:54:00,
2013-03-19 05:59:00,29.4,28.1,30.11,ENE,65,0.0,1.0,95,0.00,,,0.00,WUHU216DAVISWMX,2013-03-19 09:59:00,
2013-03-19 06:04:00,29.3,28.0,30.11,ENE,61,0.0,0.0,95,0.00,,,0.00,WUHU216DAVISWMX,2013-03-19 10:04:00,
2013-03-19 06:09:00,29.4,28.4,30.11,ENE,62,3.0,3.0,96,0.00,,,0.00,WUHU216DAVISWMX,2013-03-19 10:09:00,
2013-03-19 06:14:00,29.4,28.1,30.11,ENE,63,0.0,3.0,95,0.00,,,0.00,WUHU216DAVISWMX,2013-03-19 10:14:00,
2013-03-19 06:19:00,29.6,28.3,30.11,ENE,63,0.0,1.0,95,0.00,,,0.00,WUHU216DAVISWMX,2013-03-19 10:19:00,
2013-03-19 06:24:00,29.6,28.3,30.11,ENE,66,0.0,1.0,95,0.00,,,0.00,WUHU216DAVISWMX,2013-03-19 10:24:00,
2013-03-19 06:29:00,29.5,28.2,30.10,ENE,69,0.0,1.0,95,0.00,,,0.00,WUHU216DAVISWMX,2013-03-19 10:29:00,
2013-03-19 06:34:00,29.7,28.4,30.10,ENE,69,0.0,1.0,95,0.00,,,0.00,WUHU216DAVISWMX,2013-03-19 10:34:00,
2013-03-19 06:39:00,29.7,28.7,30.10,East,84,0.0,1.0,96,0.00,,,0.00,WUHU216DAVISWMX,2013-03-19 10:39:00,
2013-03-19 06:44:00,29.8,28.8,30.10,ENE,76,0.0,1.0,96,0.00,,,0.00,WUHU216DAVISWMX,2013-03-19 10:44:00,
2013-03-19 06:50:00,29.8,28.8,30.09,NE,55,0.0,2.0,96,0.00,,,0.00,WUHU216DAVISWMX,2013-03-19 10:50:00,
2013-03-19 06:55:00,29.7,28.9,30.09,East,82,0.0,2.0,97,0.00,,,0.00,WUHU216DAVISWMX,2013-03-19 10:55:00,
2013-03-19 07:00:00,29.8,29.0,30.09,East,90,0.0,2.0,97,0.00,,,0.00,WUHU216DAVISWMX,2013-03-19 11:00:00,
2013-03-19 07:05:00,29.7,28.9,30.08,NE,53,0.0,1.0,97,0.00,,,0.00,WUHU216DAVISWMX,2013-03-19 11:05:00,
2013-03-19 07:10:00,29.9,29.1,30.08,NE,39,0.0,4.0,97,0.00,,,0.00,WUHU216DAVISWMX,2013-03-19 11:10:00,
2013-03-19 07:15:00,29.9,29.4,30.08,ENE,72,0.0,4.0,98,0.00,,,0.00,WUHU216DAVISWMX,2013-03-19 11:15:00,
2013-03-19 07:20:00,29.7,28.9,30.07,NE,47,0.0,3.0,97,0.00,,,0.00,WUHU216DAVISWMX,2013-03-19 11:20:00,
2013-03-19 07:25:00,29.9,29.1,30.07,ENE,72,0.0,3.0,97,0.00,,,0.00,WUHU216DAVISWMX,2013-03-19 11:25:00,
2013-03-19 07:30:00,30.0,29.2,30.06,NNE,20,0.0,3.0,97,0.00,,,0.00,WUHU216DAVISWMX,2013-03-19 11:30:00,
2013-03-19 07:35:00,30.0,29.2,30.06,NE,56,0.0,3.0,97,0.00,,,0.00,WUHU216DAVISWMX,2013-03-19 11:35:00,
2013-03-19 07:40:00,30.1,29.3,30.06,ENE,63,0.0,6.0,97,0.00,,,0.00,WUHU216DAVISWMX,2013-03-19 11:40:00,
2013-03-19 07:45:00,30.2,29.4,30.06,East,99,0.0,6.0,97,0.00,,,0.00,WUHU216DAVISWMX,2013-03-19 11:45:00,
2013-03-19 07:50:00,30.2,29.4,30.05,ESE,114,0.0,3.0,97,0.00,,,0.00,WUHU216DAVISWMX,2013-03-19 11:50:00,
2013-03-19 07:55:00,30.2,29.7,30.05,NE,36,1.0,3.0,98,0.00,,,0.00,WUHU216DAVISWMX,2013-03-19 11:55:00,
2013-03-19 08:00:00,30.4,29.6,30.05,ESE,114,0.0,3.0,97,0.00,,,0.00,WUHU216DAVISWMX,2013-03-19 12:00:00,
2013-03-19 08:05:00,30.5,29.7,30.04,East,87,0.0,3.0,97,0.00,,,0.00,WUHU216DAVISWMX,2013-03-19 12:05:00,
2013-03-19 08:10:00,30.5,29.7,30.04,ESE,120,0.0,2.0,97,0.00,,,0.00,WUHU216DAVISWMX,2013-03-19 12:10:00,
2013-03-19 08:15:00,30.6,29.8,30.04,ENE,67,0.0,2.0,97,0.00,,,0.00,WUHU216DAVISWMX,2013-03-19 12:15:00,
2013-03-19 08:20:00,30.6,29.8,30.04,SE,145,1.0,3.0,97,0.00,,,0.00,WUHU216DAVISWMX,2013-03-19 12:20:00,
2013-03-19 08:25:00,30.7,30.2,30.04,ENE,69,0.0,3.0,98,0.00,,,0.00,WUHU216DAVISWMX,2013-03-19 12:25:00,
2013-03-19 08:30:00,30.8,30.3,30.03,ENE,69,0.0,2.0,98,0.00,,,0.00,WUHU216DAVISWMX,2013-03-19 12:30:00,
2013-03-19 08:35:00,30.8,30.0,30.03,NE,44,0.0,1.0,97,0.00,,,0.00,WUHU216DAVISWMX,2013-03-19 12:35:00,
2013-03-19 08:40:00,30.9,30.1,30.02,ENE,77,0.0,1.0,97,0.00,,,0.00,WUHU216DAVISWMX,2013-03-19 12:40:00,
2013-03-19 08:45:00,31.0,30.2,30.02,ENE,63,0.0,2.0,97,0.00,,,0.00,WUHU216DAVISWMX,2013-03-19 12:45:00,
2013-03-19 08:50:00,31.1,30.3,30.02,North,4,0.0,2.0,97,0.00,,,0.00,WUHU216DAVISWMX,2013-03-19 12:50:00,
2013-03-19 08:55:00,31.2,30.7,30.01,NE,43,0.0,4.0,98,0.00,,,0.00,WUHU216DAVISWMX,2013-03-19 12:55:00,
2013-03-19 09:00:00,31.3,30.5,30.01,SSW,202,0.0,4.0,97,0.00,,,0.00,WUHU216DAVISWMX,2013-03-19 13:00:00,
2013-03-19 09:05:00,31.4,30.6,30.01,NNE,33,0.0,1.0,97,0.00,,,0.00,WUHU216DAVISWMX,2013-03-19 13:05:00,
2013-03-19 09:10:00,31.6,30.8,30.01,ENE,58,1.0,2.0,97,0.00,,,0.00,WUHU216DAVISWMX,2013-03-19 13:10:00,
2013-03-19 09:15:00,31.6,30.8,30.01,NE,53,1.0,2.0,97,0.00,,,0.00,WUHU216DAVISWMX,2013-03-19 13:15:00,
2013-03-19 09:20:00,31.8,31.0,30.00,ENE,75,0.0,4.0,97,0.00,,,0.00,WUHU216DAVISWMX,2013-03-19 13:20:00,
2013-03-19 09:25:00,31.8,31.0,30.00,East,80,0.0,4.0,97,0.00,,,0.00,WUHU216DAVISWMX,2013-03-19 13:25:00,
2013-03-19 09:30:00,31.9,31.1,29.99,SE,143,0.0,4.0,97,0.00,,,0.00,WUHU216DAVISWMX,2013-03-19 13:30:00,
2013-03-19 09:35:00,32.1,31.3,29.99,SE,125,0.0,3.0,97,0.00,,,0.00,WUHU216DAVISWMX,2013-03-19 13:35:00,
2013-03-19 09:40:00,32.1,31.3,29.99,ENE,65,0.0,5.0,97,0.00,,,0.00,WUHU216DAVISWMX,2013-03-19 13:40:00,
2013-03-19 09:45:00,32.1,31.3,29.99,NE,56,0.0,5.0,97,0.00,,,0.00,WUHU216DAVISWMX,2013-03-19 13:45:00,
2013-03-19 09:50:00,32.2,31.4,29.99,NNE,15,0.0,1.0,97,0.00,,,0.00,WUHU216DAVISWMX,2013-03-19 13:50:00,
2013-03-19 09:55:00,32.4,31.6,29.99,NE,55,0.0,2.0,97,0.00,,,0.00,WUHU216DAVISWMX,2013-03-19 13:55:00,
2013-03-19 10:00:00,32.3,31.5,29.99,ENE,61,0.0,2.0,97,0.00,,,0.00,WUHU216DAVISWMX,2013-03-19 14:00:00,
2013-03-19 10:05:00,32.5,31.7,29.98,ENE,73,0.0,2.0,97,0.00,,,0.00,WUHU216DAVISWMX,2013-03-19 14:05:00,
2013-03-19 10:10:00,32.6,31.8,29.98,NW,322,0.0,2.0,97,0.00,,,0.00,WUHU216DAVISWMX,2013-03-19 14:10:00,
2013-03-19 10:15:00,32.6,31.8,29.98,ENE,69,0.0,1.0,97,0.00,,,0.00,WUHU216DAVISWMX,2013-03-19 14:15:00,
2013-03-19 10:20:00,32.8,32.0,29.98,NE,40,1.0,2.0,97,0.00,,,0.00,WUHU216DAVISWMX,2013-03-19 14:20:00,
2013-03-19 10:25:00,32.8,32.0,29.97,ENE,65,1.0,2.0,97,0.00,,,0.00,WUHU216DAVISWMX,2013-03-19 14:25:00,
2013-03-19 10:30:00,33.2,32.4,29.96,NE,52,0.0,2.0,97,0.00,,,0.00,WUHU216DAVISWMX,2013-03-19 14:30:00,
2013-03-19 10:35:00,33.2,32.4,29.96,NE,43,3.0,4.0,97,0.00,,,0.00,WUHU216DAVISWMX,2013-03-19 14:35:00,
2013-03-19 10:40:00,33.2,32.4,29.96,East,80,0.0,5.0,97,0.00,,,0.00,WUHU216DAVISWMX,2013-03-19 14:40:00,
2013-03-19 10:45:00,33.3,32.5,29.96,ENE,62,3.0,6.0,97,0.00,,,0.00,WUHU216DAVISWMX,2013-03-19 14:45:00,
2013-03-19 10:50:00,33.3,32.5,29.96,NE,54,0.0,6.0,97,0.00,,,0.00,WUHU216DAVISWMX,2013-03-19 14:50:00,
2013-03-19 10:55:00,33.5,32.7,29.95,NE,48,0.0,3.0,97,0.00,,,0.00,WUHU216DAVISWMX,2013-03-19 14:55:00,
2013-03-19 11:00:00,33.6,32.8,29.94,ENE,60,0.0,4.0,97,0.00,,,0.00,WUHU216DAVISWMX,2013-03-19 15:00:00,
2013-03-19 11:05:00,33.7,32.9,29.94,East,93,0.0,4.0,97,0.00,,,0.00,WUHU216DAVISWMX,2013-03-19 15:05:00,
2013-03-19 11:10:00,33.8,33.0,29.94,SSE,164,1.0,4.0,97,0.00,,,0.00,WUHU216DAVISWMX,2013-03-19 15:10:00,
2013-03-19 11:15:00,33.8,33.0,29.94,ENE,70,1.0,4.0,97,0.00,,,0.00,WUHU216DAVISWMX,2013-03-19 15:15:00,
2013-03-19 11:20:00,33.9,33.1,29.93,ENE,59,1.0,8.0,97,0.00,,,0.00,WUHU216DAVISWMX,2013-03-19 15:20:00,
2013-03-19 11:25:00,33.9,33.1,29.93,NE,47,0.0,8.0,97,0.00,,,0.00,WUHU216DAVISWMX,2013-03-19 15:25:00,
2013-03-19 11:30:00,33.9,33.1,29.93,ENE,78,0.0,7.0,97,0.00,,,0.00,WUHU216DAVISWMX,2013-03-19 15:30:00,
2013-03-19 11:35:00,33.9,33.1,29.92,East,87,0.0,3.0,97,0.00,,,0.00,WUHU216DAVISWMX,2013-03-19 15:35:00,
2013-03-19 11:40:00,34.0,33.2,29.92,ENE,62,0.0,8.0,97,0.00,,,0.00,WUHU216DAVISWMX,2013-03-19 15:40:00,
2013-03-19 11:45:00,34.1,33.3,29.92,ENE,68,3.0,8.0,97,0.00,,,0.00,WUHU216DAVISWMX,2013-03-19 15:45:00,
2013-03-19 11:50:00,34.1,33.3,29.91,NNE,26,1.0,7.0,97,0.00,,,0.00,WUHU216DAVISWMX,2013-03-19 15:50:00,
2013-03-19 11:55:00,34.1,33.0,29.89,ENE,62,1.0,7.0,96,0.00,,,0.00,WUHU216DAVISWMX,2013-03-19 15:55:00,
2013-03-19 12:00:00,34.2,33.4,29.88,ENE,70,1.0,6.0,97,0.00,,,0.00,WUHU216DAVISWMX,2013-03-19 16:00:00,
2013-03-19 12:05:00,34.3,33.5,29.88,East,85,2.0,7.0,97,0.00,,,0.00,WUHU216DAVISWMX,2013-03-19 16:05:00,
2013-03-19 12:10:00,34.4,33.6,29.89,NNE,27,1.0,7.0,97,0.00,,,0.00,WUHU216DAVISWMX,2013-03-19 16:10:00,
2013-03-19 12:15:00,34.3,33.5,29.90,ENE,66,0.0,6.0,97,0.00,,,0.00,WUHU216DAVISWMX,2013-03-19 16:15:00,
2013-03-19 12:20:00,34.4,33.3,29.90,East,87,0.0,4.0,96,0.00,,,0.00,WUHU216DAVISWMX,2013-03-19 16:20:00,
2013-03-19 12:25:00,34.4,33.6,29.89,NE,39,1.0,6.0,97,0.00,,,0.00,WUHU216DAVISWMX,2013-03-19 16:25:00,
2013-03-19 12:30:00,34.5,33.4,29.89,ENE,60,0.0,7.0,96,0.00,,,0.00,WUHU216DAVISWMX,2013-03-19 16:30:00,
2013-03-19 12:35:00,34.5,33.4,29.87,ENE,75,7.0,7.0,96,0.00,,,0.00,WUHU216DAVISWMX,2013-03-19 16:35:00,
2013-03-19 12:40:00,34.5,33.4,29.87,ENE,67,1.0,9.0,96,0.00,,,0.00,WUHU216DAVISWMX,2013-03-19 16:40:00,
2013-03-19 12:45:00,34.6,33.5,29.87,ENE,65,0.0,9.0,96,0.00,,,0.00,WUHU216DAVISWMX,2013-03-19 16:45:00,
2013-03-19 12:50:00,34.5,33.4,29.87,ENE,70,4.0,7.0,96,0.00,,,0.00,WUHU216DAVISWMX,2013-03-19 16:50:00,
2013-03-19 12:55:00,34.6,33.5,29.87,NNE,30,0.0,8.0,96,0.00,,,0.00,WUHU216DAVISWMX,2013-03-19 16:55:00,
2013-03-19 13:00:00,34.5,33.4,29.86,East,82,0.0,8.0,96,0.00,,,0.00,WUHU216DAVISWMX,2013-03-19 17:00:00,
2013-03-19 13:05:00,34.6,33.5,29.86,East,86,0.0,3.0,96,0.00,,,0.00,WUHU216DAVISWMX,2013-03-19 17:05:00,
2013-03-19 13:10:00,34.6,33.5,29.85,East,83,0.0,3.0,96,0.00,,,0.00,WUHU216DAVISWMX,2013-03-19 17:10:00,
2013-03-19 13:15:00,34.5,33.4,29.84,NE,46,0.0,6.0,96,0.00,,,0.00,WUHU216DAVISWMX,2013-03-19 17:15:00,
2013-03-19 13:20:00,34.7,33.6,29.84,NE,53,5.0,6.0,96,0.00,,,0.00,WUHU216DAVISWMX,2013-03-19 17:20:00,
2013-03-19 13:25:00,34.4,33.6,29.84,ENE,71,0.0,5.0,97,0.00,,,0.00,WUHU216DAVISWMX,2013-03-19 17:25:00,
2013-03-19 13:30:00,34.4,33.6,29.83,SE,125,0.0,5.0,97,0.00,,,0.00,WUHU216DAVISWMX,2013-03-19 17:30:00,
2013-03-19 13:35:00,34.3,33.5,29.83,East,93,2.0,8.0,97,0.00,,,0.00,WUHU216DAVISWMX,2013-03-19 17:35:00,
2013-03-19 13:40:00,34.3,33.5,29.83,North,3,0.0,8.0,97,0.00,,,0.00,WUHU216DAVISWMX,2013-03-19 17:40:00,
2013-03-19 13:45:00,34.2,33.4,29.82,NNE,28,4.0,7.0,97,0.00,,,0.00,WUHU216DAVISWMX,2013-03-19 17:45:00,
2013-03-19 13:50:00,34.0,33.2,29.82,East,96,0.0,5.0,97,0.00,,,0.00,WUHU216DAVISWMX,2013-03-19 17:50:00,
2013-03-19 13:55:00,33.9,33.1,29.82,East,96,0.0,5.0,97,0.00,,,0.00,WUHU216DAVISWMX,2013-03-19 17:55:00,
2013-03-19 14:00:00,33.9,33.1,29.84,NW,322,0.0,3.0,97,0.00,,,0.00,WUHU216DAVISWMX,2013-03-19 18:00:00,
2013-03-19 14:05:00,33.9,33.1,29.85,NW,324,0.0,3.0,97,0.00,,,0.00,WUHU216DAVISWMX,2013-03-19 18:05:00,
2013-03-19 14:10:00,33.8,33.3,29.85,North,0,1.0,3.0,98,0.00,,,0.00,WUHU216DAVISWMX,2013-03-19 18:10:00,
2013-03-19 14:16:00,33.8,33.3,29.86,North,2,0.0,3.0,98,0.00,,,0.00,WUHU216DAVISWMX,2013-03-19 18:16:00,
2013-03-19 14:21:00,33.7,33.2,29.87,NNW,338,1.0,3.0,98,0.00,,,0.00,WUHU216DAVISWMX,2013-03-19 18:21:00,
2013-03-19 14:26:00,33.7,33.2,29.87,NNW,338,0.0,3.0,98,0.00,,,0.00,WUHU216DAVISWMX,2013-03-19 18:26:00,
2013-03-19 14:31:00,33.7,33.2,29.87,NW,312,0.0,2.0,98,0.00,,,0.00,WUHU216DAVISWMX,2013-03-19 18:31:00,
2013-03-19 14:36:00,33.6,33.1,29.86,NNW,328,0.0,2.0,98,0.00,,,0.00,WUHU216DAVISWMX,2013-03-19 18:36:00,
2013-03-19 14:41:00,33.4,33.1,29.84,NNE,24,1.0,2.0,99,0.00,,,0.00,WUHU216DAVISWMX,2013-03-19 18:41:00,
2013-03-19 14:46:00,33.3,33.0,29.84,NNE,24,0.0,2.0,99,0.00,,,0.00,WUHU216DAVISWMX,2013-03-19 18:46:00,
2013-03-19 14:51:00,33.3,33.0,29.84,North,9,0.0,1.0,99,0.00,,,0.00,WUHU216DAVISWMX,2013-03-19 18:51:00,
2013-03-19 14:56:00,33.4,33.1,29.83,NNE,32,0.0,1.0,99,0.00,,,0.00,WUHU216DAVISWMX,2013-03-19 18:56:00,
2013-03-19 15:01:00,33.3,33.0,29.83,NNE,24,1.0,1.0,99,0.00,,,0.00,WUHU216DAVISWMX,2013-03-19 19:01:00,
2013-03-19 15:06:00,33.4,33.4,29.83,North,353,0.0,3.0,100,0.00,,,0.00,WUHU216DAVISWMX,2013-03-19 19:06:00,
2013-03-19 15:11:00,33.4,33.1,29.83,NE,42,2.0,3.0,99,0.00,,,0.00,WUHU216DAVISWMX,2013-03-19 19:11:00,
2013-03-19 15:16:00,33.4,33.4,29.83,North,0,1.0,3.0,100,0.00,,,0.00,WUHU216DAVISWMX,2013-03-19 19:16:00,
2013-03-19 15:21:00,33.3,33.0,29.82,NE,51,0.0,4.0,99,0.00,,,0.00,WUHU216DAVISWMX,2013-03-19 19:21:00,
2013-03-19 15:26:00,33.4,33.4,29.82,ENE,64,1.0,4.0,100,0.00,,,0.00,WUHU216DAVISWMX,2013-03-19 19:26:00,
2013-03-19 15:32:00,33.2,33.2,29.81,NNE,27,1.0,3.0,100,0.00,,,0.00,WUHU216DAVISWMX,2013-03-19 19:32:00,
2013-03-19 15:37:00,33.2,32.9,29.80,NNE,15,1.0,3.0,99,0.00,,,0.00,WUHU216DAVISWMX,2013-03-19 19:37:00,
2013-03-19 15:42:00,33.2,33.2,29.78,ENE,63,1.0,2.0,100,0.00,,,0.00,WUHU216DAVISWMX,2013-03-19 19:42:00,
2013-03-19 15:47:00,33.1,33.1,29.77,NE,35,0.0,2.0,100,0.00,,,0.00,WUHU216DAVISWMX,2013-03-19 19:47:00,
2013-03-19 15:52:00,33.2,33.2,29.73,East,94,1.0,6.0,100,0.00,,,0.00,WUHU216DAVISWMX,2013-03-19 19:52:00,
2013-03-19 15:57:00,33.2,32.9,29.75,East,85,0.0,6.0,99,0.00,,,0.00,WUHU216DAVISWMX,2013-03-19 19:57:00,
2013-03-19 16:02:00,33.3,33.3,29.75,ENE,61,1.0,5.0,100,0.00,,,0.00,WUHU216DAVISWMX,2013-03-19 20:02:00,
2013-03-19 16:07:00,33.5,33.5,29.75,East,94,1.0,3.0,100,0.00,,,0.00,WUHU216DAVISWMX,2013-03-19 20:07:00,
2013-03-19 16:12:00,33.4,33.1,29.75,NE,47,1.0,4.0,99,0.00,,,0.00,WUHU216DAVISWMX,2013-03-19 20:12:00,
2013-03-19 16:17:00,33.5,33.2,29.74,NE,47,1.0,4.0,99,0.00,,,0.00,WUHU216DAVISWMX,2013-03-19 20:17:00,
2013-03-19 16:22:00,33.6,33.3,29.74,East,101,0.0,5.0,99,0.00,,,0.00,WUHU216DAVISWMX,2013-03-19 20:22:00,
2013-03-19 16:27:00,33.5,33.0,29.74,NE,40,0.0,5.0,98,0.00,,,0.00,WUHU216DAVISWMX,2013-03-19 20:27:00,
2013-03-19 16:32:00,33.5,33.0,29.74,North,0,0.0,6.0,98,0.00,,,0.00,WUHU216DAVISWMX,2013-03-19 20:32:00,
2013-03-19 16:37:00,33.5,33.2,29.74,North,5,0.0,3.0,99,0.00,,,0.00,WUHU216DAVISWMX,2013-03-19 20:37:00,
2013-03-19 16:42:00,33.5,33.0,29.73,East,97,0.0,3.0,98,0.00,,,0.00,WUHU216DAVISWMX,2013-03-19 20:42:00,
2013-03-19 16:47:00,33.5,33.0,29.74,NE,46,0.0,3.0,98,0.00,,,0.00,WUHU216DAVISWMX,2013-03-19 20:47:00,
2013-03-19 16:52:00,33.5,33.0,29.73,NNE,33,0.0,0.0,98,0.00,,,0.00,WUHU216DAVISWMX,2013-03-19 20:52:00,
2013-03-19 16:57:00,33.5,33.0,29.73,North,2,0.0,5.0,98,0.00,,,0.00,WUHU216DAVISWMX,2013-03-19 20:57:00,
2013-03-19 17:02:00,33.6,33.1,29.73,ENE,72,0.0,5.0,98,0.01,,,0.01,WUHU216DAVISWMX,2013-03-19 21:02:00,
2013-03-19 17:07:00,33.4,32.9,29.73,NNE,15,0.0,1.0,98,0.01,,,0.01,WUHU216DAVISWMX,2013-03-19 21:07:00,
2013-03-19 17:12:00,33.3,32.8,29.74,NNE,27,0.0,0.0,98,0.01,,,0.01,WUHU216DAVISWMX,2013-03-19 21:12:00,
2013-03-19 17:17:00,33.3,32.8,29.74,NNE,27,0.0,0.0,98,0.01,,,0.01,WUHU216DAVISWMX,2013-03-19 21:17:00,
2013-03-19 17:22:00,33.2,32.9,29.74,North,10,0.0,4.0,99,0.01,,,0.01,WUHU216DAVISWMX,2013-03-19 21:22:00,
2013-03-19 17:27:00,33.2,32.9,29.74,North,10,0.0,4.0,99,0.01,,,0.01,WUHU216DAVISWMX,2013-03-19 21:27:00,
2013-03-19 17:33:00,33.1,32.8,29.74,North,0,0.0,0.0,99,0.01,,,0.01,WUHU216DAVISWMX,2013-03-19 21:33:00,
2013-03-19 17:38:00,33.0,32.5,29.74,NNE,15,0.0,0.0,98,0.01,,,0.01,WUHU216DAVISWMX,2013-03-19 21:38:00,
2013-03-19 17:43:00,33.0,32.5,29.74,NNE,18,0.0,0.0,98,0.01,,,0.01,WUHU216DAVISWMX,2013-03-19 21:43:00,
2013-03-19 17:48:00,32.9,32.6,29.74,North,8,0.0,0.0,99,0.01,,,0.01,WUHU216DAVISWMX,2013-03-19 21:48:00,
2013-03-19 17:53:00,32.8,32.5,29.74,NNE,30,0.0,0.0,99,0.01,,,0.01,WUHU216DAVISWMX,2013-03-19 21:53:00,
2013-03-19 17:58:00,32.7,32.4,29.73,NNE,12,0.0,0.0,99,0.01,,,0.01,WUHU216DAVISWMX,2013-03-19 21:58:00,
2013-03-19 18:03:00,32.7,32.4,29.73,NNE,12,0.0,0.0,99,0.00,,,0.01,WUHU216DAVISWMX,2013-03-19 22:03:00,
2013-03-19 18:08:00,32.6,32.3,29.72,ENE,76,0.0,0.0,99,0.00,,,0.01,WUHU216DAVISWMX,2013-03-19 22:08:00,
2013-03-19 18:13:00,32.6,32.3,29.72,ENE,62,0.0,0.0,99,0.00,,,0.01,WUHU216DAVISWMX,2013-03-19 22:13:00,
2013-03-19 18:18:00,32.6,32.6,29.73,North,10,0.0,0.0,100,0.00,,,0.01,WUHU216DAVISWMX,2013-03-19 22:18:00,
2013-03-19 18:23:00,32.5,32.5,29.73,NNE,12,0.0,0.0,100,0.00,,,0.01,WUHU216DAVISWMX,2013-03-19 22:23:00,
2013-03-19 18:28:00,32.5,32.2,29.72,NNE,12,0.0,0.0,99,0.00,,,0.01,WUHU216DAVISWMX,2013-03-19 22:28:00,
2013-03-19 18:33:00,32.5,32.5,29.72,North,10,0.0,0.0,100,0.00,,,0.01,WUHU216DAVISWMX,2013-03-19 22:33:00,
2013-03-19 18:38:00,32.5,32.2,29.72,East,100,0.0,0.0,99,0.00,,,0.01,WUHU216DAVISWMX,2013-03-19 22:38:00,
2013-03-19 18:43:00,32.4,32.1,29.72,NE,50,0.0,0.0,99,0.00,,,0.01,WUHU216DAVISWMX,2013-03-19 22:43:00,
2013-03-19 18:48:00,32.2,32.2,29.72,NE,47,0.0,0.0,100,0.00,,,0.01,WUHU216DAVISWMX,2013-03-19 22:48:00,
2013-03-19 18:53:00,32.3,32.0,29.73,NE,47,0.0,0.0,99,0.00,,,0.01,WUHU216DAVISWMX,2013-03-19 22:53:00,
2013-03-19 18:58:00,32.3,32.3,29.73,NE,46,0.0,0.0,100,0.00,,,0.01,WUHU216DAVISWMX,2013-03-19 22:58:00,
2013-03-19 19:03:00,32.2,31.9,29.73,NE,46,0.0,0.0,99,0.00,,,0.01,WUHU216DAVISWMX,2013-03-19 23:03:00,
2013-03-19 19:08:00,32.2,31.9,29.73,NE,46,0.0,0.0,99,0.00,,,0.01,WUHU216DAVISWMX,2013-03-19 23:08:00,
2013-03-19 19:13:00,32.2,31.9,29.73,NE,46,0.0,0.0,99,0.00,,,0.01,WUHU216DAVISWMX,2013-03-19 23:13:00,
2013-03-19 19:18:00,32.2,32.2,29.74,NE,46,0.0,0.0,100,0.00,,,0.01,WUHU216DAVISWMX,2013-03-19 23:18:00,
2013-03-19 19:23:00,32.2,32.2,29.74,NE,46,0.0,0.0,100,0.00,,,0.01,WUHU216DAVISWMX,2013-03-19 23:23:00,
2013-03-19 19:28:00,32.1,32.1,29.74,NE,46,0.0,0.0,100,0.00,,,0.01,WUHU216DAVISWMX,2013-03-19 23:28:00,
2013-03-19 19:33:00,32.1,32.1,29.74,NE,46,0.0,0.0,100,0.00,,,0.01,WUHU216DAVISWMX,2013-03-19 23:33:00,
2013-03-19 19:38:00,31.9,31.9,29.73,NE,46,0.0,0.0,100,0.00,,,0.01,WUHU216DAVISWMX,2013-03-19 23:38:00,
2013-03-19 19:43:00,31.8,31.8,29.73,NE,46,0.0,0.0,100,0.00,,,0.01,WUHU216DAVISWMX,2013-03-19 23:43:00,
2013-03-19 19:48:00,31.8,31.8,29.73,NE,46,0.0,0.0,100,0.00,,,0.01,WUHU216DAVISWMX,2013-03-19 23:48:00,
2013-03-19 19:53:00,31.8,31.8,29.74,NE,46,0.0,0.0,100,0.00,,,0.01,WUHU216DAVISWMX,2013-03-19 23:53:00,
2013-03-19 19:58:00,31.7,31.7,29.73,NE,46,0.0,0.0,100,0.00,,,0.01,WUHU216DAVISWMX,2013-03-19 23:58:00,
2013-03-19 20:03:00,31.8,31.8,29.74,NE,46,0.0,0.0,100,0.00,,,0.01,WUHU216DAVISWMX,2013-03-20 00:03:00,
2013-03-19 20:08:00,31.7,31.7,29.74,NE,46,0.0,0.0,100,0.00,,,0.01,WUHU216DAVISWMX,2013-03-20 00:08:00,
2013-03-19 20:13:00,31.5,31.5,29.74,NE,46,0.0,0.0,100,0.00,,,0.01,WUHU216DAVISWMX,2013-03-20 00:13:00,
2013-03-19 20:18:00,31.5,31.5,29.73,NE,46,0.0,0.0,100,0.00,,,0.01,WUHU216DAVISWMX,2013-03-20 00:18:00,
2013-03-19 20:23:00,31.4,31.4,29.73,NE,46,0.0,0.0,100,0.00,,,0.01,WUHU216DAVISWMX,2013-03-20 00:23:00,
2013-03-19 20:28:00,31.3,31.0,29.73,NE,46,0.0,0.0,99,0.00,,,0.01,WUHU216DAVISWMX,2013-03-20 00:28:00,
2013-03-19 20:33:00,31.2,30.9,29.74,NE,46,0.0,0.0,99,0.00,,,0.01,WUHU216DAVISWMX,2013-03-20 00:33:00,
2013-03-19 20:38:00,31.0,30.7,29.74,NE,46,0.0,0.0,99,0.00,,,0.01,WUHU216DAVISWMX,2013-03-20 00:38:00,
2013-03-19 20:43:00,31.0,31.0,29.75,NE,46,0.0,0.0,100,0.00,,,0.01,WUHU216DAVISWMX,2013-03-20 00:43:00,
2013-03-19 20:48:00,31.0,31.0,29.75,NE,46,0.0,0.0,100,0.00,,,0.01,WUHU216DAVISWMX,2013-03-20 00:48:00,
2013-03-19 20:53:00,30.9,30.6,29.75,NE,46,0.0,0.0,99,0.00,,,0.01,WUHU216DAVISWMX,2013-03-20 00:53:00,
2013-03-19 20:58:00,30.9,30.6,29.76,NE,46,0.0,0.0,99,0.00,,,0.01,WUHU216DAVISWMX,2013-03-20 00:58:00,
2013-03-19 21:03:00,30.8,30.5,29.76,NE,46,0.0,0.0,99,0.00,,,0.01,WUHU216DAVISWMX,2013-03-20 01:03:00,
2013-03-19 21:08:00,30.6,30.1,29.76,NE,46,0.0,0.0,98,0.00,,,0.01,WUHU216DAVISWMX,2013-03-20 01:08:00,
2013-03-19 21:13:00,30.6,30.3,29.77,NE,46,0.0,0.0,99,0.00,,,0.01,WUHU216DAVISWMX,2013-03-20 01:13:00,
2013-03-19 21:18:00,30.6,30.1,29.77,NE,46,0.0,0.0,98,0.00,,,0.01,WUHU216DAVISWMX,2013-03-20 01:18:00,
2013-03-19 21:23:00,30.5,30.0,29.77,NE,46,0.0,0.0,98,0.00,,,0.01,WUHU216DAVISWMX,2013-03-20 01:23:00,
2013-03-19 21:28:00,30.5,30.0,29.77,NE,46,0.0,0.0,98,0.00,,,0.01,WUHU216DAVISWMX,2013-03-20 01:28:00,
2013-03-19 21:33:00,30.4,29.9,29.77,NE,46,0.0,0.0,98,0.00,,,0.01,WUHU216DAVISWMX,2013-03-20 01:33:00,
2013-03-19 21:38:00,30.2,29.7,29.77,NE,46,0.0,0.0,98,0.00,,,0.01,WUHU216DAVISWMX,2013-03-20 01:38:00,
2013-03-19 21:43:00,30.0,29.5,29.77,NE,46,0.0,0.0,98,0.00,,,0.01,WUHU216DAVISWMX,2013-03-20 01:43:00,
2013-03-19 21:48:00,30.0,29.2,29.78,NE,46,0.0,0.0,97,0.00,,,0.01,WUHU216DAVISWMX,2013-03-20 01:48:00,
2013-03-19 21:53:00,30.1,29.3,29.77,NE,46,0.0,0.0,97,0.00,,,0.01,WUHU216DAVISWMX,2013-03-20 01:53:00,
2013-03-19 21:58:00,30.0,29.2,29.77,NE,46,0.0,0.0,97,0.00,,,0.01,WUHU216DAVISWMX,2013-03-20 01:58:00,
2013-03-19 22:03:00,29.8,29.0,29.78,NE,46,0.0,0.0,97,0.00,,,0.01,WUHU216DAVISWMX,2013-03-20 02:03:00,
2013-03-19 22:09:00,29.8,29.0,29.78,NE,46,0.0,0.0,97,0.00,,,0.01,WUHU216DAVISWMX,2013-03-20 02:09:00,
2013-03-19 22:14:00,29.7,28.9,29.77,NE,46,0.0,0.0,97,0.00,,,0.01,WUHU216DAVISWMX,2013-03-20 02:14:00,
2013-03-19 22:19:00,29.7,28.9,29.77,NE,46,0.0,0.0,97,0.00,,,0.01,WUHU216DAVISWMX,2013-03-20 02:19:00,
2013-03-19 22:24:00,29.5,28.7,29.77,NE,46,0.0,0.0,97,0.00,,,0.01,WUHU216DAVISWMX,2013-03-20 02:24:00,
2013-03-19 22:29:00,29.3,28.5,29.77,NE,46,0.0,0.0,97,0.00,,,0.01,WUHU216DAVISWMX,2013-03-20 02:29:00,
2013-03-19 22:34:00,29.2,28.4,29.78,NE,46,0.0,0.0,97,0.00,,,0.01,WUHU216DAVISWMX,2013-03-20 02:34:00,
2013-03-19 22:39:00,29.0,28.0,29.78,NE,46,0.0,0.0,96,0.00,,,0.01,WUHU216DAVISWMX,2013-03-20 02:39:00,
2013-03-19 22:44:00,29.0,28.2,29.77,NE,46,0.0,0.0,97,0.00,,,0.01,WUHU216DAVISWMX,2013-03-20 02:44:00,
2013-03-19 22:49:00,28.9,27.9,29.78,NE,46,0.0,0.0,96,0.00,,,0.01,WUHU216DAVISWMX,2013-03-20 02:49:00,
2013-03-19 22:54:00,28.9,27.9,29.77,NE,46,0.0,0.0,96,0.00,,,0.01,WUHU216DAVISWMX,2013-03-20 02:54:00,
2013-03-19 22:59:00,28.5,27.5,29.78,NE,46,0.0,0.0,96,0.00,,,0.01,WUHU216DAVISWMX,2013-03-20 02:59:00,
2013-03-19 23:04:00,28.5,27.2,29.78,NE,46,0.0,0.0,95,0.00,,,0.01,WUHU216DAVISWMX,2013-03-20 03:04:00,
2013-03-19 23:09:00,28.3,27.0,29.78,NE,46,0.0,0.0,95,0.00,,,0.01,WUHU216DAVISWMX,2013-03-20 03:09:00,
2013-03-19 23:14:00,28.1,26.5,29.78,NE,46,0.0,0.0,94,0.00,,,0.01,WUHU216DAVISWMX,2013-03-20 03:14:00,
2013-03-19 23:19:00,27.9,26.6,29.78,NE,46,0.0,0.0,95,0.00,,,0.01,WUHU216DAVISWMX,2013-03-20 03:19:00,
2013-03-19 23:24:00,27.8,26.3,29.77,NE,46,0.0,0.0,94,0.00,,,0.01,WUHU216DAVISWMX,2013-03-20 03:24:00,
2013-03-19 23:29:00,27.6,26.1,29.77,NE,46,0.0,0.0,94,0.00,,,0.01,WUHU216DAVISWMX,2013-03-20 03:29:00,
2013-03-19 23:34:00,27.7,26.2,29.77,NE,46,0.0,0.0,94,0.00,,,0.01,WUHU216DAVISWMX,2013-03-20 03:34:00,
2013-03-19 23:39:00,27.4,25.9,29.77,NE,46,0.0,0.0,94,0.00,,,0.01,WUHU216DAVISWMX,2013-03-20 03:39:00,
2013-03-19 23:44:00,27.4,25.9,29.77,NE,46,0.0,0.0,94,0.00,,,0.01,WUHU216DAVISWMX,2013-03-20 03:44:00,
2013-03-19 23:49:00,27.2,25.7,29.77,NE,46,0.0,0.0,94,0.00,,,0.01,WUHU216DAVISWMX,2013-03-20 03:49:00,
2013-03-19 23:54:00,27.0,25.5,29.77,NE,46,0.0,0.0,94,0.00,,,0.01,WUHU216DAVISWMX,2013-03-20 03:54:00,
2013-03-19 23:59:00,27.0,25.5,29.77,NE,46,0.0,0.0,94,0.00,,,0.01,WUHU216DAVISWMX,2013-03-20 03:59:00,